Location: Axtheid
(49.6213°N, 11.8205°E)
Time: 13:00:24
(UTC+00:00)

Cosmos 1939 Rocket - Pass Details

Date: 24 January 2021
Orbit: 530 x 585 km, 97.4° (Epoch: 25 February)

Event Time Altitude Azimuth Distance (km) Brightness Sun altitude
Rises 17:32:13 0° 182° (S) 2,789 6.6 -15.5°
Reaches altitude 10° 17:34:28 10° 189° (S) 1,889 5.8 -15.9°
Maximum altitude 17:38:23 43° 262° (W) 810 4.2 -16.5°
Drops below altitude 10° 17:42:17 10° 335° (NNW) 1,878 5.7 -17.1°
Sets 17:44:30 0° 342° (NNW) 2,771 6.5 -17.5°
